Vacaville, CA

12:48 AM PDT on May 27, 2017 (GMT -0700)
Nut Tree

Weather History for KVCB - January, 2013

Change the Weather History Date:

Saturday, January 5, 2013

  Actual Average Record
Temperature  
Mean Temperature 39 °F -  
Max Temperature 48 °F 52 °F 71 °F (2003)
Min Temperature 30 °F 35 °F 18 °F (1949)
Degree Days  
Heating Degree Days 26    
Moisture  
Dew Point 38 °F    
Average Humidity 89    
Maximum Humidity 100    
Minimum Humidity 66    
Precipitation  
Precipitation 0.50 in - - ()
Sea Level Pressure  
Sea Level Pressure 30.20 in    
Wind  
Wind Speed 2 mph (North)    
Max Wind Speed 8 mph    
Max Gust Speed -    
Visibility 7 miles    
Events Rain    
Averages and records for this station are not official NWS values.
T = Trace of Precipitation, MM = Missing Value Source: NWS Daily Summary

Daily Weather History Graph

Daily Weather History Graph

Search for Another Location

Airport or City:

Trip Planner

Search our weather history database for the weather conditions in past years. The results will help you decide how hot, cold, wet, or windy it might be!

Date:

Astronomy

Jan. 05, 2013 Rise Set
Actual Time 7:25 AM PST 5:01 PM PST
Civil Twilight 6:55 AM PST 5:31 PM PST
Nautical Twilight 6:22 AM PST 6:04 PM PST
Astronomical Twilight 5:50 AM PST 6:36 PM PST
Moon 12:40 AM PST (1/5) 11:52 AM PST (1/5)
Length of Visible Light 10h 35m
Length of Day
9h 36m
Last Quarter, 43% of the Moon is Illuminated
Jan 5
Last Quarter
Jan 11
New
Jan 18
First Quarter
Jan 26
Full
Feb 3
Last Quarter

Hourly Weather History & Observations

Time (PST) Temp. Windchill Dew Point Humidity Pressure Visibility Wind Dir Wind Speed Gust Speed Precip Events Conditions
12:53 AM 34.0 °F - 32.0 °F 92% 30.26 in 10.0 mi Calm Calm - N/A   Clear
1:53 AM 33.1 °F 30.0 °F 30.9 °F 92% 30.26 in 10.0 mi WSW 3.5 mph - N/A   Clear
2:53 AM 34.0 °F - 32.0 °F 92% 30.26 in 9.0 mi Calm Calm - N/A   Clear
3:53 AM 32.0 °F - 30.9 °F 96% 30.27 in 9.0 mi Calm Calm - N/A   Clear
4:53 AM 32.0 °F - 30.0 °F 92% 30.27 in 8.0 mi Calm Calm - N/A   Clear
5:53 AM 30.0 °F - 28.9 °F 96% 30.27 in 9.0 mi Calm Calm - N/A   Clear
6:53 AM 32.0 °F 28.7 °F 30.9 °F 96% 30.29 in 9.0 mi WSW 3.5 mph - N/A   Clear
7:53 AM 34.0 °F - 33.1 °F 96% 30.29 in 7.0 mi Calm Calm - N/A   Scattered Clouds
8:26 AM 37.4 °F - 35.6 °F 93% 30.29 in 8.0 mi Calm Calm - N/A   Overcast
8:53 AM 39.0 °F - 37.0 °F 93% 30.30 in 8.0 mi Calm Calm - N/A   Overcast
9:53 AM 44.1 °F - 37.0 °F 76% 30.30 in 10.0 mi Calm Calm - N/A   Overcast
10:53 AM 44.1 °F 41.5 °F 37.9 °F 79% 30.27 in 10.0 mi ENE 4.6 mph - N/A   Overcast
11:53 AM 46.0 °F 42.5 °F 37.9 °F 73% 30.25 in 10.0 mi NNW 6.9 mph - N/A   Overcast
12:53 PM 46.9 °F - 37.9 °F 71% 30.22 in 10.0 mi Calm Calm - N/A   Overcast
1:21 PM 46.4 °F 44.3 °F 37.4 °F 71% 30.19 in 10.0 mi ENE 4.6 mph - N/A   Scattered Clouds
1:53 PM 48.0 °F - 37.0 °F 66% 30.18 in 10.0 mi Calm Calm - N/A   Scattered Clouds
2:02 PM 48.2 °F - 37.4 °F 66% 30.17 in 10.0 mi ENE 3.5 mph - N/A   Mostly Cloudy
2:53 PM 46.9 °F - 37.9 °F 71% 30.18 in 9.0 mi Calm Calm - N/A   Overcast
3:15 PM 46.4 °F - 37.4 °F 71% 30.17 in 10.0 mi Calm Calm - N/A   Mostly Cloudy
3:53 PM 46.9 °F - 39.0 °F 74% 30.16 in 8.0 mi Calm Calm - N/A   Overcast
4:53 PM 44.1 °F 41.5 °F 42.1 °F 93% 30.16 in 3.0 mi North 4.6 mph - 0.06 in Rain Rain
5:53 PM 44.1 °F - 43.0 °F 96% 30.15 in 4.0 mi Calm Calm - 0.11 in Rain Light Rain
6:15 PM 42.8 °F 40.1 °F 42.8 °F 100% 30.15 in 3.0 mi North 4.6 mph - 0.04 in Rain Light Rain
6:32 PM 42.8 °F 38.6 °F 42.8 °F 100% 30.14 in 3.0 mi North 6.9 mph - 0.07 in Rain Rain
6:53 PM 43.0 °F 40.3 °F 42.1 °F 97% 30.15 in 4.0 mi NNW 4.6 mph - 0.09 in Rain Light Rain
7:10 PM 42.8 °F - 42.8 °F 100% 30.14 in 3.0 mi Calm Calm - 0.02 in Rain Light Rain
7:30 PM 42.8 °F 41.1 °F 42.8 °F 100% 30.13 in 4.0 mi North 3.5 mph - 0.03 in Rain Light Rain
7:53 PM 43.0 °F 40.3 °F 42.1 °F 97% 30.14 in 4.0 mi NNW 4.6 mph - 0.04 in Rain Light Rain
8:46 PM 42.8 °F 38.0 °F 41.0 °F 93% 30.14 in 3.0 mi North 8.1 mph - 0.09 in Rain Rain
8:53 PM 42.1 °F 37.7 °F 41.0 °F 96% 30.14 in 4.0 mi North 6.9 mph - 0.11 in Rain Rain
9:06 PM 42.8 °F 39.3 °F 42.8 °F 100% 30.14 in 4.0 mi North 5.8 mph - 0.02 in Rain Rain
9:20 PM 42.8 °F 38.6 °F 41.0 °F 93% 30.14 in 5.0 mi NNW 6.9 mph - 0.05 in Rain Light Rain
9:53 PM 43.0 °F 38.2 °F 42.1 °F 97% 30.13 in 8.0 mi North 8.1 mph - 0.07 in Rain Light Rain
10:53 PM 43.0 °F 41.3 °F 42.1 °F 97% 30.15 in 10.0 mi North 3.5 mph - 0.00 in   Overcast
11:53 PM 43.0 °F 38.2 °F 42.1 °F 97% 30.13 in 5.0 mi North 8.1 mph - 0.02 in Rain Light Rain